Orbital Elements at Epoch 2459200.5 (2020-Dec-17.0) TDB
Reference: JPL 27 (heliocentric ecliptic J2000)
Element | Value | Uncertainty (1-sigma) | Units |
e | .1447313321702546 | 3.0398e-08 | |
a | 2.205704793212517 | 6.9868e-09 | au |
q | 1.886470200116554 | 6.7127e-08 | au |
i | 5.293148323752524 | 3.8935e-06 | deg |
node | .4689804703902021 | 3.7802e-05 | deg |
peri | 39.53840715194226 | 4.0539e-05 | deg |
M | 259.4000401301007 | 1.6891e-05 | deg |
tp | 2459534.860382983705 (2021-Nov-16.36038298) | 5.7039e-05 | TDB |
period | 1196.518746426955 3.28 | 5.6852e-06 1.557e-08 | d yr |
n | .3008728455571903 | 1.4296e-09 | deg/d |
Q | 2.524939386308481 | 7.998e-09 | au |
|
| | Orbit Determination Parameters
Additional Information
|